Theta_e
302 296 293 294 296 298 299 298 298 299 295 293 293 292 292 292 293 296 296 298 298 293 293 294 295 295 296 297 299 300 301 301 300 300 301 301 302 303 304 304 306 305 305 309 309 310 310 310 310 310 310 309 308 307 307 306 307 308 307 307 306 307 308 308 309 310 311 310 310 310 309 308 309 309 309 308 308 308 307 306 305 304 302 302 302 301
298 294 295 298 299 300 299 299 298 296 295 294 293 293 292 293 291 295 296 298 298 292 292 294 293 294 295 297 298 300 300 299 300 300 300 301 302 303 304 305 304 304 307 308 308 309 310 310 311 310 309 307 306 306 305 305 306 307 307 307 307 307 306 306 307 309 310 311 310 309 309 309 309 307 306 306 307 307 306 305 304 304 303 302 301 300
294 292 297 299 301 297 294 294 294 294 294 294 292 293 292 292 295 296 296 297 295 292 292 295 292 293 295 297 299 299 299 300 301 301 301 302 302 304 304 303 303 303 304 305 306 309 308 309 309 308 308 308 307 306 306 306 306 307 306 307 307 306 305 306 306 307 308 310 310 309 309 308 308 308 308 308 307 306 305 304 303 303 303 302 301 301
292 295 297 300 300 296 294 293 293 293 293 292 293 291 289 294 292 290 294 292 292 292 291 293 290 293 296 298 299 300 300 301 302 302 303 303 303 303 302 302 302 302 303 305 305 304 305 306 306 306 305 305 306 306 305 305 305 305 306 306 306 306 305 305 305 306 308 309 309 309 308 306 307 305 305 305 304 303 303 302 302 302 302 302 301 301
296 297 298 298 297 295 294 294 292 292 292 295 294 293 292 293 294 293 293 294 295 296 294 293 294 296 298 296 298 298 298 299 301 302 302 303 304 304 304 305 303 302 303 304 303 304 303 303 304 305 305 306 305 305 305 305 305 304 305 306 306 306 305 305 305 305 306 306 306 306 305 305 304 303 302 302 302 302 302 301 301 300 301 301 301 301
296 299 297 295 294 294 294 292 293 294 292 294 296 294 294 295 294 294 295 293 291 291 292 293 288 291 295 297 297 301 300 300 302 302 303 301 302 303 302 302 303 304 305 304 302 302 303 302 303 303 303 303 303 302 302 303 304 304 304 305 306 306 305 304 305 304 304 304 303 303 302 301 300 300 300 299 300 301 300 300 301 301 300 300 300 300
296 296 295 295 295 293 293 294 296 296 292 291 293 297 295 294 294 294 292 291 287 287 291 293 286 285 294 294 297 299 299 299 302 303 303 302 302 302 302 302 302 302 302 302 303 302 301 301 301 302 302 302 301 301 302 303 303 303 304 304 305 305 305 305 304 304 303 303 303 303 302 302 301 300 301 302 302 301 301 301 300 299 300 300 299 300
293 292 293 294 294 294 293 291 296 295 292 290 295 293 296 294 293 292 291 290 289 292 293 290 292 287 288 294 297 298 298 299 300 302 302 302 301 301 300 301 301 301 300 301 301 300 300 300 300 300 301 301 300 300 301 302 302 302 303 303 304 304 304 304 304 303 303 302 302 302 302 301 301 301 301 301 300 301 300 299 299 299 298 299 299 299
293 293 293 292 292 292 292 295 297 296 293 293 292 292 293 293 292 291 291 290 290 287 286 289 292 287 289 294 293 296 295 297 299 300 300 300 300 300 300 301 300 300 300 299 299 299 299 299 299 300 300 301 301 301 300 300 301 302 303 303 303 303 303 303 303 302 302 302 302 302 302 301 301 302 302 302 301 300 300 298 298 298 298 298 298 298
293 295 296 297 294 292 296 292 296 297 293 293 292 293 292 293 292 291 291 290 289 287 284 288 291 287 288 297 294 293 294 297 299 299 299 298 299 300 300 299 299 299 300 300 299 299 299 299 299 300 300 299 299 300 300 300 300 301 301 301 301 302 302 302 302 302 302 302 301 301 301 301 301 301 301 301 300 300 300 298 298 297 297 297 297 297
294 293 295 294 294 297 294 290 291 297 294 293 295 294 293 292 292 290 290 289 287 284 287 290 291 291 285 294 295 294 297 297 299 299 299 300 300 300 299 298 298 298 298 298 298 298 298 299 298 298 297 297 298 298 298 298 299 299 300 299 300 300 300 301 301 301 301 301 301 301 301 301 300 301 301 300 299 299 299 297 297 297 297 297 296 296
293 293 293 295 297 293 296 292 291 290 291 294 292 291 291 290 289 289 287 288 284 284 289 291 291 292 284 291 295 297 296 295 296 297 297 299 298 299 297 297 297 297 297 297 297 296 297 297 297 297 296 296 296 296 296 297 297 298 298 298 298 299 299 299 300 300 300 301 301 301 301 301 301 300 300 300 299 299 298 298 297 297 297 296 296 296
290 291 295 295 295 295 294 293 292 292 293 292 291 290 286 285 287 284 285 281 283 285 286 286 290 286 287 293 296 298 299 300 298 298 298 298 298 298 296 296 296 295 295 294 294 294 294 294 294 294 295 295 295 295 295 295 296 296 297 297 297 297 297 298 298 299 299 300 300 300 300 300 300 300 300 300 299 300 298 298 297 297 296 296 295 295
294 292 291 294 294 296 296 290 290 289 290 290 289 287 285 282 282 280 284 284 283 287 286 287 290 285 292 295 299 298 300 299 296 296 297 297 296 295 295 295 294 294 293 293 292 292 292 292 293 293 294 294 294 294 294 295 295 296 296 296 295 295 296 297 297 297 298 298 299 300 300 300 300 299 300 299 299 299 299 299 297 297 297 296 295 295
286 289 292 292 293 298 295 296 297 297 292 291 294 292 289 288 284 280 283 281 283 287 284 287 285 284 286 292 295 298 298 297 296 296 296 296 296 295 294 294 293 292 292 292 291 291 291 291 292 292 293 293 293 293 293 294 294 295 295 295 295 295 295 296 296 296 296 297 298 298 299 299 299 299 299 299 300 299 299 298 298 297 297 297 297 296
289 290 296 296 294 295 294 298 299 294 292 292 293 293 288 287 291 284 287 286 286 286 285 283 285 291 292 298 298 298 296 294 295 295 295 294 294 294 292 291 290 290 290 290 290 290 290 291 291 291 291 292 292 293 293 292 293 293 294 294 294 294 294 294 294 295 296 296 296 297 297 298 298 298 298 298 299 299 299 298 298 297 297 297 297 297
290 287 292 293 292 294 294 294 295 297 287 290 289 286 290 295 292 287 287 287 285 284 281 290 288 291 296 297 299 295 293 292 292 292 292 291 292 291 289 289 289 289 289 289 289 289 289 290 290 290 291 291 291 292 292 292 293 293 293 293 293 293 294 294 294 294 295 295 295 296 296 297 297 297 297 297 298 298 298 298 298 297 297 297 297 297
287 289 294 293 292 294 289 291 294 294 295 290 286 291 293 295 293 288 281 285 283 280 282 288 284 287 288 285 294 293 291 291 290 289 289 289 289 288 288 288 288 288 288 289 289 289 289 289 289 289 290 290 291 291 291 291 292 292 293 292 292 292 292 293 293 293 293 293 294 295 295 296 296 296 296 297 297 298 298 298 297 297 296 296 297 296
293 285 293 294 295 293 292 293 293 294 294 292 291 295 289 285 284 288 284 276 278 278 280 285 287 287 289 290 295 294 291 290 288 288 287 286 287 287 287 287 287 288 287 287 287 287 287 287 287 288 289 289 290 291 291 291 291 292 292 292 293 292 292 292 293 293 293 293 293 294 294 295 295 295 296 296 296 297 296 296 297 296 296 296 297 295
292 285 288 294 292 292 292 293 286 290 293 293 293 291 293 289 286 285 286 285 285 279 280 280 285 283 292 293 295 292 289 289 288 286 285 285 285 286 286 286 286 286 286 286 286 286 287 287 286 287 287 287 288 289 290 290 291 290 291 291 292 292 293 293 292 292 292 292 292 292 293 293 294 294 294 295 295 295 295 295 296 296 295 295 295 295
290 295 282 292 290 293 287 291 289 292 289 288 288 287 289 287 290 289 287 285 283 281 280 280 279 284 292 293 291 288 287 288 287 285 285 285 285 285 285 284 284 285 285 285 285 285 285 286 286 286 286 287 288 289 290 290 289 289 290 290 291 291 291 291 292 292 292 292 292 291 291 291 292 292 293 293 294 293 294 294 295 295 295 295 294 294
288 290 284 289 289 289 290 296 294 293 293 291 290 288 290 286 284 281 280 290 285 283 279 280 278 286 289 291 288 286 287 287 287 286 285 284 284 284 284 284 284 284 284 284 284 285 285 285 285 286 286 287 287 287 288 289 289 288 288 289 289 290 290 290 291 291 291 292 292 292 291 291 291 291 291 291 292 292 292 292 293 294 294 293 293 294
292 290 288 285 288 289 293 296 294 296 294 293 292 289 293 290 288 284 278 282 287 285 285 283 280 281 288 289 287 285 284 284 285 285 284 284 284 283 284 284 284 284 284 284 284 284 285 285 285 285 285 286 286 286 287 288 288 288 288 288 288 288 289 290 290 291 291 291 291 291 291 291 291 291 291 291 291 291 291 292 292 293 292 292 292 293
292 286 285 285 289 292 294 297 294 293 294 291 293 291 291 287 286 284 284 285 282 283 281 282 279 282 287 287 285 285 284 285 284 284 284 283 283 284 283 283 284 284 285 285 285 285 285 284 285 285 285 285 285 286 287 288 288 289 288 287 287 287 288 288 289 290 290 290 290 290 290 290 290 290 290 290 290 290 291 291 292 292 292 292 292 291
286 285 286 280 281 284 288 292 290 291 290 286 288 290 290 289 289 289 287 286 280 282 283 280 275 283 290 287 286 285 285 284 284 284 284 283 284 284 284 284 285 285 285 285 286 286 286 286 285 285 285 285 285 286 287 287 288 288 288 288 287 287 288 288 289 289 289 289 288 288 288 288 288 288 288 288 289 289 290 290 291 291 291 291 291 291
288 286 285 278 275 274 274 276 279 282 285 287 287 285 290 289 288 285 281 283 278 283 283 279 279 287 292 294 293 289 288 286 285 284 284 285 284 284 285 285 285 286 285 286 286 287 286 286 286 285 284 285 285 285 286 286 287 288 288 288 288 287 288 288 288 288 288 288 288 288 287 287 287 287 287 288 288 288 289 290 290 290 290 291 291 290
286 288 287 284 281 279 281 284 288 288 286 283 285 286 286 288 288 287 284 280 277 281 280 282 283 283 285 288 289 290 288 286 284 284 283 284 284 285 285 286 286 285 286 285 286 286 287 287 286 286 286 285 285 286 286 286 287 287 288 288 288 288 288 288 288 288 288 288 287 287 287 287 286 286 286 287 287 288 288 288 289 289 289 289 289 289
286 283 285 285 284 285 286 286 288 288 284 284 284 284 286 285 285 283 280 278 284 280 275 283 284 282 284 287 288 289 285 284 284 282 283 284 284 285 285 285 285 285 285 286 285 286 285 286 286 286 286 285 286 287 287 287 287 287 287 287 288 288 287 288 288 288 288 287 287 287 286 287 287 286 286 286 287 287 287 287 287 287 288 288 288 288
284 281 283 284 282 285 286 285 287 285 284 284 284 283 283 284 284 280 281 283 283 278 276 282 283 281 284 286 288 284 283 281 282 282 282 283 284 284 285 284 285 285 285 285 285 285 286 286 286 286 286 286 286 286 286 286 287 287 288 288 288 288 287 288 287 287 287 287 286 286 287 287 287 287 287 287 287 286 286 286 286 287 287 287 287 287
283 280 283 284 281 282 284 284 285 283 282 282 282 283 283 283 282 283 282 283 283 281 283 283 283 283 286 286 285 282 282 282 282 284 284 283 283 284 284 284 284 285 285 285 285 286 286 286 286 287 287 286 286 286 286 286 286 287 287 287 288 288 288 287 286 286 286 286 286 287 287 287 287 286 286 286 286 286 286 285 286 286 287 287 287 287
284 278 285 280 279 279 282 283 283 282 281 278 280 281 282 282 282 282 282 282 282 281 282 282 281 281 283 281 283 283 282 283 282 281 282 282 283 283 283 284 284 285 285 284 284 285 286 287 287 287 287 287 287 286 286 286 286 287 287 287 287 287 288 288 286 286 286 286 286 287 286 286 286 286 285 286 286 286 285 285 285 286 286 286 286 286
284 279 282 280 275 275 279 279 280 280 278 277 276 278 279 279 278 280 279 282 281 279 281 281 278 279 281 281 280 283 281 281 280 281 281 282 282 282 281 282 283 284 284 284 284 285 286 286 286 287 287 287 287 287 287 286 286 286 286 287 287 287 288 287 286 286 286 286 286 286 286 286 285 285 285 285 285 285 285 285 285 285 285 285 285 285
280 279 277 277 274 273 278 279 276 275 274 272 273 277 279 279 280 281 282 283 282 282 278 276 277 281 280 282 278 280 281 280 281 281 281 281 282 282 281 282 283 284 284 284 284 284 285 286 286 287 287 288 288 288 288 287 286 286 286 286 287 287 287 286 286 286 285 286 285 286 286 286 285 285 284 284 284 284 284 284 285 285 285 285 285 285
280 278 277 279 272 272 276 273 274 272 266 268 280 282 281 278 279 278 278 280 282 283 281 281 280 278 280 281 280 278 278 279 280 281 283 282 281 282 283 283 284 284 285 285 285 285 285 286 287 287 288 288 288 288 288 288 287 287 287 287 287 286 286 286 285 285 285 285 285 285 285 285 285 284 284 284 284 284 284 284 284 284 285 285 285 285
277 277 276 278 272 271 273 271 270 264 267 278 282 282 281 281 280 280 280 281 282 280 280 280 280 280 280 281 280 280 281 281 283 283 283 284 284 284 283 283 284 284 285 285 285 285 286 286 287 287 287 288 288 288 288 288 288 287 286 286 286 286 285 285 285 285 285 284 285 285 285 285 285 284 284 284 284 284 284 284 284 284 284 284 284 284
277 276 276 273 274 271 270 270 263 264 276 277 279 281 282 282 281 280 278 281 281 282 283 281 281 279 280 280 281 282 282 283 284 284 284 285 286 285 284 284 284 285 285 285 285 285 285 286 286 286 286 288 289 288 288 288 288 286 285 286 285 285 285 285 284 284 284 284 284 284 284 284 284 284 284 283 283 283 283 283 283 283 284 284 284 284
280 278 276 271 276 267 270 270 269 274 273 275 276 278 279 278 279 277 272 277 281 282 282 281 281 281 280 280 281 281 283 282 281 282 285 285 286 286 285 285 285 285 286 287 287 286 287 287 287 287 288 288 288 288 288 288 287 285 285 284 284 284 284 283 283 283 283 283 283 284 284 284 283 283 283 283 283 283 283 282 283 283 283 283 283 283
281 275 277 272 268 275 268 267 268 268 264 271 279 281 282 280 280 279 278 274 281 280 280 279 277 277 279 280 280 281 282 279 276 278 283 284 285 285 285 286 286 286 287 287 287 287 287 286 286 286 286 286 286 287 287 286 284 283 283 283 283 283 282 282 282 283 283 283 283 283 283 284 283 283 283 282 281 282 282 282 283 282 283 282 282 281
279 280 277 275 271 273 270 267 266 264 268 276 274 277 280 280 280 279 276 270 277 276 278 277 278 279 279 279 279 281 278 274 274 278 283 284 284 284 284 284 285 285 286 286 286 284 284 284 284 285 285 285 284 284 284 283 282 281 281 281 281 281 281 281 281 282 282 282 283 283 283 283 283 283 282 281 281 281 281 281 281 282 283 282 282 281
274 275 275 271 270 271 269 267 266 271 269 275 275 279 280 280 281 276 266 268 276 275 278 278 279 279 279 280 280 278 276 273 275 279 283 284 284 284 284 283 283 284 284 284 284 283 283 283 283 282 281 281 281 282 281 281 280 279 279 279 280 279 279 280 280 281 282 282 282 282 282 283 282 281 281 280 280 281 281 281 281 281 281 281 281 281
271 271 274 268 270 270 271 268 271 271 277 279 279 282 280 282 279 268 264 273 277 277 279 280 280 280 280 279 279 276 279 281 281 283 284 284 283 283 284 284 284 283 282 282 282 283 281 281 280 279 279 279 280 280 280 279 278 277 277 278 277 277 278 279 280 280 280 280 280 281 281 281 281 280 280 280 280 280 280 280 280 280 280 280 280 280
267 268 269 271 269 268 269 268 268 271 277 280 281 280 281 277 268 268 277 278 279 279 281 280 279 280 280 280 280 280 281 282 283 284 283 282 282 282 282 282 281 281 281 281 281 280 279 278 278 278 278 278 278 278 278 277 276 275 275 275 275 276 277 277 277 277 278 278 278 279 279 279 280 279 279 279 279 278 278 279 279 279 279 279 279 278
270 266 268 268 269 270 268 266 266 262 273 278 278 277 280 272 274 278 280 281 281 280 280 280 280 280 281 279 281 281 281 282 281 281 281 281 281 280 280 279 278 278 278 278 278 278 277 276 275 275 276 276 276 276 275 274 273 273 273 272 273 274 275 275 275 275 275 275 275 276 276 277 277 277 277 277 277 277 276 277 277 277 278 277 277 276
276 268 269 269 273 266 267 264 265 273 277 278 277 273 278 280 282 281 280 278 281 281 280 280 281 281 281 280 280 280 280 279 279 280 279 279 278 278 277 277 277 277 277 277 276 276 275 273 273 272 272 272 273 272 272 272 270 270 270 270 272 272 273 273 272 272 271 271 272 272 273 274 274 275 275 275 276 275 275 275 275 276 276 276 276 276
276 272 274 270 275 270 269 272 276 278 279 280 280 281 281 283 283 282 280 280 279 280 281 279 279 279 278 278 278 278 277 278 278 278 276 276 276 276 275 275 275 275 275 274 274 273 272 270 269 269 269 270 270 270 269 269 268 268 267 269 270 269 268 268 268 267 267 268 268 269 270 271 271 272 272 273 273 273 273 273 274 274 275 275 275 275
279 279 278 275 273 278 279 279 280 280 280 280 282 282 281 281 282 282 281 279 281 280 280 279 279 277 276 275 274 275 276 276 275 275 275 275 274 274 274 274 274 274 273 272 271 270 269 268 267 267 266 267 267 267 267 267 266 264 264 266 266 266 266 265 264 264 263 264 265 266 267 267 268 269 270 271 272 272 273 273 273 273 273 274 274 274
277 277 274 272 276 272 268 278 277 278 280 280 280 282 283 282 281 281 280 280 279 277 276 275 276 275 274 273 272 273 273 274 273 273 273 273 273 273 272 272 272 271 270 269 269 268 266 265 264 264 264 263 264 264 264 263 263 263 264 263 264 263 262 261 260 260 260 261 262 263 263 263 264 265 266 267 268 270 270 271 272 272 272 272 272 272
272 279 273 274 273 272 271 276 278 279 280 280 280 279 280 281 281 278 278 277 276 275 274 274 273 272 273 272 272 271 272 272 271 271 271 271 271 271 270 270 269 268 268 268 267 266 264 263 262 261 261 261 262 262 262 262 261 262 262 261 261 261 260 259 259 259 259 259 260 260 261 261 263 263 263 264 265 266 267 269 269 270 270 271 271 271
276 276 270 273 272 275 277 278 278 279 279 279 280 281 281 281 279 276 274 274 273 272 272 272 272 271 271 271 271 270 269 270 270 269 269 269 269 268 268 267 267 267 266 265 264 263 261 261 260 260 260 260 261 261 260 260 261 261 260 260 260 260 259 258 259 259 258 258 259 259 260 261 261 261 262 262 263 264 265 266 267 267 268 270 271 271
276 272 275 273 270 270 271 274 277 272 272 277 280 280 279 274 276 274 273 272 271 271 270 269 269 270 269 270 269 269 267 268 268 268 267 267 266 266 266 265 265 264 263 263 262 261 260 260 259 259 258 259 260 260 259 259 260 260 260 260 260 259 258 258 258 258 258 258 258 259 259 259 260 260 260 260 261 261 262 266 269 268 267 267 271 273
274 275 275 272 271 271 276 278 279 279 278 279 279 275 273 273 273 273 272 271 270 269 268 268 267 268 268 268 268 267 266 266 266 266 265 265 265 265 264 263 262 261 261 260 259 259 258 258 258 258 258 258 259 259 259 259 259 259 259 260 259 259 258 258 257 257 257 258 258 258 258 258 258 259 259 259 259 260 260 260 262 267 270 270 270 271
Wind_Speed
1 8 8 9 12 12 9 14 17 14 3 3 4 7 13 14 15 15 18 16 6 9 12 14 17 17 15 15 18 19 19 19 22 21 16 17 18 18 15 13 8 7 7 8 8 11 9 10 8 8 7 6 5 6 7 8 9 11 12 10 12 11 12 11 11 11 11 12 11 11 12 13 11 11 11 11 12 12 11 12 13 13 13 13 14 14
2 9 10 13 13 12 8 5 7 11 9 11 12 12 14 9 16 12 15 12 4 4 8 8 15 16 16 18 20 21 19 22 19 15 18 20 19 18 13 7 9 7 5 7 8 9 8 7 9 8 5 5 7 5 5 7 8 9 10 11 10 7 11 12 12 11 12 12 11 12 12 11 10 12 12 14 13 12 11 12 13 12 13 13 14 13
7 10 11 14 14 1 1 1 3 8 11 10 10 10 10 10 14 14 14 10 2 2 11 9 16 14 18 21 24 20 18 15 15 15 17 17 20 9 10 9 8 7 6 6 6 9 11 12 11 8 7 6 6 7 6 5 6 7 8 9 8 8 10 11 12 11 11 11 10 11 8 9 9 8 8 8 8 9 10 11 12 12 12 13 12 12
8 8 15 16 9 4 5 3 3 5 7 9 9 7 11 8 8 8 5 2 3 0 12 14 18 15 20 19 17 14 9 13 12 16 21 20 12 9 9 8 7 5 4 5 7 10 12 12 12 12 11 11 8 7 6 4 5 5 7 8 9 9 10 9 11 10 9 8 8 8 5 6 8 6 7 7 5 7 9 11 11 11 12 13 12 13
12 2 0 4 5 10 12 8 6 9 13 9 11 9 11 14 12 10 9 5 10 12 4 12 13 10 3 6 2 2 2 6 12 17 18 7 3 6 3 5 5 3 4 7 11 11 12 13 14 13 13 11 11 10 10 8 6 4 6 7 8 8 9 9 9 10 9 6 6 6 4 1 5 3 5 7 11 11 10 9 11 13 11 12 12 12
13 4 4 4 3 7 8 7 11 11 12 9 8 13 17 15 15 14 13 9 7 7 4 10 13 3 4 2 1 2 3 7 14 17 5 3 2 4 5 4 1 1 4 10 12 10 11 13 14 17 16 16 14 13 12 10 9 7 6 5 6 7 7 8 9 9 9 9 9 9 9 10 9 10 11 12 13 10 11 12 8 9 12 11 11 11
7 3 3 7 5 4 7 9 11 10 11 8 6 9 13 14 13 11 11 6 7 5 3 5 4 13 5 11 8 9 8 14 17 11 6 5 5 6 5 2 3 7 11 12 10 12 14 15 16 17 16 15 14 13 11 10 10 10 7 6 5 6 5 5 7 9 9 9 9 11 11 11 11 11 10 8 6 7 7 7 9 8 9 11 12 11
5 1 4 2 6 7 6 9 8 11 8 9 3 0 3 5 6 5 3 5 10 4 6 6 8 9 14 4 5 7 10 14 14 6 4 7 5 9 7 2 8 10 9 6 8 11 14 15 16 15 15 14 13 11 11 10 10 10 10 8 6 4 4 3 5 8 9 9 9 10 11 10 11 11 8 6 7 5 6 8 9 8 9 11 12 11
5 4 6 5 6 5 10 9 5 11 8 1 3 2 2 2 2 1 3 6 4 7 7 5 3 5 9 2 2 4 6 10 11 6 7 12 10 9 6 9 14 12 10 8 9 13 14 15 15 14 14 14 13 14 14 12 11 10 9 8 6 5 4 3 5 6 8 9 9 9 9 10 9 9 8 4 6 7 7 8 8 9 9 9 11 12
2 1 6 8 6 9 6 2 5 8 9 2 4 5 4 4 4 2 3 4 5 4 11 7 9 6 16 4 6 2 4 7 3 6 9 12 11 6 9 13 13 12 10 10 12 13 14 15 15 13 12 15 14 12 13 13 12 12 10 10 9 7 5 3 3 6 8 9 8 8 10 11 10 9 8 8 6 7 7 9 10 9 9 9 10 12
3 1 2 3 9 5 5 3 1 4 2 4 3 1 1 1 1 1 0 3 3 8 10 12 13 7 11 2 5 7 1 2 2 6 6 9 8 11 12 13 12 11 11 12 13 14 15 15 15 14 15 13 14 13 14 14 14 13 13 12 12 9 6 5 4 4 7 7 9 10 10 11 11 10 9 8 8 7 7 9 9 9 9 9 10 11
4 3 2 4 2 3 3 5 3 1 2 1 1 2 4 4 2 3 0 2 3 10 3 8 12 12 8 3 2 2 1 2 4 5 6 6 13 11 11 11 12 12 11 11 12 14 16 17 17 16 17 16 15 16 18 16 14 14 13 13 14 13 11 7 5 5 6 6 8 9 10 10 11 11 9 10 10 8 8 8 8 8 8 9 9 9
3 9 4 1 2 5 5 4 2 2 2 4 3 2 3 4 2 4 4 3 6 9 2 4 5 3 16 13 5 6 8 7 2 3 8 8 8 12 11 12 11 11 12 12 14 14 15 14 14 14 14 14 17 17 18 17 15 14 14 16 15 14 13 10 7 6 6 6 7 8 9 10 9 9 11 10 10 9 8 8 8 8 9 8 9 10
5 5 4 5 1 7 9 8 3 3 8 7 7 5 3 5 4 7 4 2 5 1 4 1 4 10 14 12 10 16 12 7 11 8 6 8 11 13 10 10 12 13 13 13 14 14 14 14 13 12 12 13 14 17 16 15 15 13 13 15 15 15 13 11 9 8 7 7 8 8 8 8 8 9 9 10 9 9 8 7 9 9 9 9 10 10
11 10 5 9 4 9 12 13 9 4 9 11 7 10 6 6 3 7 3 10 8 7 2 3 1 4 2 0 3 6 6 9 8 7 10 14 14 13 11 12 14 14 14 12 13 13 13 13 14 13 14 14 14 15 15 13 14 13 13 14 15 15 15 14 12 9 9 8 7 7 8 8 8 8 8 9 9 9 9 8 9 9 9 9 9 10
10 12 2 2 3 7 11 6 5 5 0 3 1 3 2 6 2 10 4 8 8 9 3 3 6 1 8 6 4 4 10 13 11 13 14 15 13 11 12 13 13 13 13 12 12 13 13 12 13 14 15 15 14 14 13 14 13 13 13 14 15 15 14 14 13 12 10 9 8 8 8 8 9 8 8 8 8 8 8 8 8 9 9 9 9 8
4 6 4 1 2 7 1 2 4 0 7 4 5 6 6 4 3 6 4 4 0 2 12 4 7 9 7 12 7 12 17 11 13 14 14 13 12 13 13 12 12 11 11 10 10 11 13 14 15 13 14 13 14 14 14 14 12 13 13 13 14 15 15 16 15 13 11 10 9 9 9 8 8 9 10 9 10 10 8 8 8 9 9 9 8 8
7 11 3 6 6 3 3 3 3 4 0 7 3 4 3 1 3 2 6 2 7 13 10 6 14 13 9 10 9 13 13 12 12 12 12 12 11 12 10 10 10 10 9 10 11 11 12 13 14 13 12 13 13 13 13 14 13 12 11 13 13 13 15 14 14 14 13 13 10 10 9 9 9 9 9 10 10 10 9 8 8 8 9 9 8 7
3 8 6 2 2 2 1 2 5 3 5 3 1 5 3 4 5 5 2 4 9 13 12 12 16 16 14 14 7 3 11 10 10 9 11 11 11 10 10 11 10 10 10 11 11 10 10 10 11 11 12 12 12 12 11 11 12 13 13 14 14 14 12 12 11 12 12 13 9 8 10 10 9 9 9 9 9 9 9 10 9 9 9 8 8 8
2 8 8 2 2 3 1 3 6 5 3 2 1 2 2 1 7 7 5 2 6 15 11 9 10 11 9 13 13 5 11 10 8 8 10 9 8 7 7 7 7 8 7 7 7 7 7 7 8 8 9 10 10 10 10 10 10 12 10 10 10 11 13 14 15 13 13 12 11 11 10 10 9 9 9 9 9 9 10 10 10 9 8 9 8 7
2 1 12 2 2 1 5 7 8 8 6 5 6 7 3 3 2 3 2 4 6 12 13 14 13 10 4 6 11 10 10 8 8 8 6 6 6 6 6 5 4 4 4 4 4 4 5 5 5 5 5 5 5 6 8 8 10 9 9 11 13 16 16 16 15 13 12 11 11 12 12 11 10 10 9 9 9 9 10 9 9 9 8 6 7 8
2 5 10 6 9 10 10 2 2 1 3 4 5 8 9 7 6 8 12 8 9 11 13 13 14 3 6 3 8 9 6 8 7 9 6 5 5 4 3 3 1 2 0 0 1 2 3 3 3 4 3 3 4 6 8 8 9 11 13 13 14 14 14 14 13 12 12 11 10 12 12 12 10 9 8 9 8 8 8 8 8 8 7 8 8 8
1 2 3 10 9 11 12 4 2 3 2 1 3 6 3 4 4 8 16 9 4 2 3 2 7 2 2 2 6 6 5 5 6 6 7 4 4 3 2 1 1 2 1 2 1 2 2 3 3 2 3 4 6 6 7 8 9 11 13 15 13 13 14 13 11 11 10 10 11 12 11 11 11 11 11 10 9 9 9 9 9 8 8 8 8 7
3 1 5 8 6 9 12 9 3 2 3 3 4 3 3 4 1 4 7 4 7 5 9 7 7 3 4 3 4 6 7 8 5 6 6 6 3 2 2 1 2 3 3 3 3 3 3 3 3 4 7 8 9 10 11 10 11 11 10 11 11 12 13 12 11 11 11 11 11 11 11 11 11 12 12 11 9 11 10 10 9 8 8 8 8 8
1 2 3 4 5 3 6 3 3 3 3 0 1 1 3 3 2 3 4 2 7 6 10 9 10 1 4 7 4 6 7 6 6 5 4 5 4 3 3 4 4 5 6 7 7 6 5 6 7 6 6 6 7 8 9 9 10 9 10 9 9 9 9 10 10 11 11 11 12 11 10 11 10 11 11 10 9 11 10 10 9 8 9 8 8 8
2 3 2 7 6 8 5 5 5 3 1 1 2 2 5 3 8 8 8 5 8 1 3 4 6 3 3 7 6 7 5 6 5 4 4 4 3 3 3 3 4 5 5 7 8 9 9 7 6 7 8 7 7 6 6 7 7 7 7 7 6 7 7 8 8 9 10 10 10 10 11 11 10 11 12 11 10 10 10 10 9 9 8 8 9 8
1 2 5 8 10 10 9 6 3 2 4 8 4 6 10 9 7 7 9 9 9 8 12 10 14 16 17 18 19 3 2 4 3 4 3 2 2 1 1 2 3 3 4 4 5 6 7 9 11 10 9 8 7 7 7 7 8 8 8 8 7 6 6 6 6 7 7 8 9 9 10 10 10 8 9 9 10 10 9 9 10 9 9 8 8 8
1 4 8 11 12 12 13 14 14 8 11 10 12 13 12 13 7 8 10 13 10 15 17 8 16 15 15 17 20 11 5 4 4 4 3 2 2 3 3 5 5 5 4 5 5 6 6 7 8 10 10 11 10 10 8 7 7 7 8 8 8 8 7 6 7 7 6 6 7 8 9 10 9 8 7 8 7 7 8 8 8 8 8 8 8 8
1 9 5 9 7 12 15 15 10 5 5 10 10 11 17 16 14 14 14 13 14 15 19 17 19 19 18 19 13 6 5 4 4 5 4 5 4 4 5 6 7 6 6 5 6 5 6 6 6 7 8 8 10 11 11 10 9 8 7 7 6 6 7 8 8 8 8 7 7 7 7 8 8 9 11 10 8 8 7 9 7 8 8 8 8 6
0 5 8 8 8 6 10 10 8 10 10 11 12 15 15 18 20 19 18 17 18 20 20 22 22 23 20 11 5 5 4 4 4 4 4 5 5 5 6 8 8 7 6 6 6 6 6 6 7 7 7 8 8 8 8 8 9 10 10 10 9 8 7 7 8 8 9 8 8 7 7 8 8 8 9 9 11 10 9 9 9 8 7 8 8 8
2 6 2 2 5 8 10 12 11 11 8 13 14 16 18 20 21 18 19 19 19 20 21 21 21 21 3 6 4 3 1 1 4 5 6 6 6 6 7 8 8 8 7 7 8 7 7 7 8 8 8 8 8 8 7 7 7 8 9 10 10 10 9 8 8 8 8 8 8 8 8 7 8 8 9 9 9 9 10 11 9 9 6 6 6 6
3 4 4 5 12 14 10 11 9 7 6 10 14 19 22 20 18 16 16 12 15 16 18 17 14 11 3 2 2 2 1 3 5 7 6 6 6 7 8 9 9 9 9 9 8 8 8 9 9 9 9 9 9 9 8 8 7 7 8 9 10 10 10 10 10 10 9 9 8 8 8 8 8 8 9 9 8 9 9 8 7 8 8 8 9 7
3 7 7 7 12 11 10 8 3 2 7 13 17 21 19 19 20 20 18 18 20 16 12 12 10 2 4 4 3 1 3 5 6 7 6 7 7 6 8 9 10 11 10 10 10 9 9 9 9 10 10 9 8 8 8 8 7 8 8 9 9 9 10 11 11 12 12 11 10 10 8 8 8 8 6 7 7 7 8 8 9 8 7 7 8 8
5 7 8 6 8 4 11 2 1 4 10 16 2 4 6 11 8 9 10 12 9 3 4 2 2 3 3 4 1 2 2 5 8 7 4 6 8 8 9 10 11 11 11 11 11 11 10 9 8 9 10 10 10 9 9 7 8 8 8 8 9 9 9 10 11 11 11 11 11 11 11 10 8 7 8 6 6 7 7 8 8 9 9 8 7 6
8 7 8 3 7 8 2 3 8 12 12 4 3 1 3 1 4 8 14 15 4 2 3 4 6 5 6 2 3 4 6 7 8 8 8 9 9 9 11 12 11 12 12 11 11 10 9 9 9 9 10 10 10 9 8 8 7 7 7 8 9 9 10 10 11 11 11 11 11 11 9 10 8 9 9 9 8 7 7 8 9 8 8 8 8 8
9 9 4 2 3 1 1 7 9 9 1 5 8 6 3 4 10 10 11 9 6 7 7 6 6 5 3 3 4 6 7 6 5 7 9 9 8 7 10 10 12 10 10 9 10 10 10 10 10 11 12 10 9 9 8 9 8 7 8 8 9 9 9 10 10 11 11 11 10 10 10 9 9 9 9 9 9 9 9 9 9 9 9 8 8 8
13 5 3 6 5 7 5 9 16 7 14 13 12 7 5 3 3 2 4 3 7 6 6 4 3 3 3 7 8 9 2 3 7 8 8 7 7 7 9 11 12 13 13 12 10 10 9 9 10 11 10 10 10 10 10 8 6 7 8 8 8 9 10 11 11 12 12 12 12 11 10 10 9 9 9 9 10 9 9 9 10 10 8 9 9 9
12 13 7 6 4 7 5 8 8 6 8 3 4 2 1 2 3 2 1 6 2 4 3 2 1 2 5 7 9 8 2 5 9 11 8 6 4 6 8 10 11 12 13 13 12 11 11 11 11 11 11 13 13 11 9 8 9 9 10 10 11 11 11 10 11 12 13 14 11 12 11 9 8 9 9 9 11 11 10 10 9 10 9 10 9 10
7 12 8 9 7 5 7 9 9 8 5 5 5 2 1 3 1 1 1 8 1 5 4 1 4 4 4 6 10 5 2 8 9 10 10 8 5 4 7 10 12 13 12 12 11 12 13 13 13 13 12 12 12 11 10 10 10 10 11 12 13 13 14 13 13 13 14 14 13 13 11 9 8 9 10 13 13 11 12 11 11 10 9 9 10 10
5 5 7 7 9 10 10 9 10 6 7 2 2 3 3 3 3 2 9 6 3 5 3 2 5 7 8 7 7 6 6 10 11 11 11 10 10 8 8 11 13 13 13 12 11 11 11 12 13 13 14 14 14 13 13 10 11 11 12 13 13 13 14 15 15 15 15 14 14 12 10 10 12 12 13 13 14 11 11 10 11 11 11 10 9 10
3 2 6 11 10 11 13 9 8 8 5 5 8 10 7 4 2 4 10 1 4 4 5 6 7 9 9 9 7 7 8 10 13 14 10 10 12 12 10 9 10 11 11 10 10 9 10 11 11 13 15 14 14 13 12 10 10 12 12 13 14 14 15 15 16 15 14 15 14 13 13 11 12 14 13 12 11 11 11 11 12 12 10 11 11 10
1 1 3 2 8 10 9 10 9 9 6 10 6 6 7 4 4 10 1 3 1 3 4 8 9 9 9 9 9 9 11 12 11 7 9 11 11 11 9 8 10 12 11 10 9 8 9 11 13 15 16 15 14 13 11 11 13 14 15 14 15 15 15 16 16 15 14 15 16 15 14 13 13 12 12 12 12 13 13 12 12 12 12 11 11 12
3 4 5 5 3 2 3 7 6 8 0 3 4 4 5 3 4 0 2 2 1 3 5 6 7 8 8 9 10 11 11 9 8 9 10 10 10 10 10 10 10 11 13 13 13 11 10 12 13 14 15 14 13 13 13 14 16 15 14 15 17 16 16 16 15 15 16 16 17 16 15 14 15 14 12 13 13 14 15 14 14 14 12 13 13 14
2 2 4 3 4 4 6 7 6 4 4 3 5 4 4 8 2 2 4 7 7 7 7 5 6 4 4 7 8 8 8 8 9 8 8 9 10 10 9 9 10 10 11 11 10 11 10 12 12 14 16 15 13 12 12 13 15 16 17 19 17 16 15 15 15 16 18 18 18 18 17 17 16 16 15 15 15 14 15 16 15 13 12 13 13 13
9 9 7 8 4 5 6 5 2 2 2 4 5 6 8 10 8 4 4 6 8 8 2 4 6 1 1 3 5 6 7 7 7 7 8 11 11 11 10 11 11 12 12 12 12 10 9 11 15 16 17 16 14 13 13 12 14 17 18 18 16 16 16 17 18 18 19 20 20 19 18 18 17 18 17 17 16 17 16 17 16 15 13 12 13 13
5 7 1 2 4 5 7 9 2 5 8 8 9 9 10 11 9 4 4 7 5 3 2 4 2 1 1 0 3 5 6 7 8 9 9 10 10 11 10 11 11 10 11 11 11 10 11 12 13 14 17 19 16 14 12 12 12 17 19 17 16 17 17 17 17 19 20 19 18 19 20 21 21 19 19 19 16 16 16 16 15 15 15 14 13 13
9 5 2 6 3 2 7 8 9 13 12 11 13 10 7 6 7 3 4 5 1 2 2 2 1 1 1 0 3 7 8 6 8 9 10 9 10 10 11 11 12 11 11 12 13 12 12 12 14 16 17 20 18 14 14 14 13 13 14 15 16 16 16 17 18 20 19 19 18 18 17 19 17 17 17 17 16 16 16 16 15 15 15 14 14 14
7 8 6 8 7 9 12 16 11 12 13 11 9 10 10 10 3 3 1 1 3 3 3 2 2 2 1 3 4 6 8 5 7 9 9 9 9 9 10 11 12 13 12 11 12 10 11 13 14 16 17 17 17 15 15 14 14 14 14 15 16 16 16 19 19 17 18 19 17 16 16 17 21 21 17 16 16 16 16 16 15 16 16 15 14 14
3 7 2 3 7 11 12 15 17 15 13 14 13 10 11 7 1 3 4 4 4 3 3 2 1 1 3 4 4 6 7 8 7 9 11 10 10 10 10 11 13 13 13 13 12 10 11 14 16 17 17 17 16 15 16 16 15 16 16 16 17 15 18 19 20 20 19 18 16 16 15 15 15 15 15 15 15 15 16 16 16 16 18 17 15 15
2 10 5 2 8 9 11 14 11 6 10 10 8 7 4 2 3 5 4 3 2 2 2 2 2 2 3 4 4 5 6 8 8 8 11 10 10 12 12 12 12 13 13 12 11 13 13 13 14 17 18 17 15 17 16 18 18 16 18 19 15 18 17 19 19 19 18 16 16 16 15 15 15 15 15 16 16 16 17 21 26 22 19 18 23 29
12 13 9 10 11 12 16 15 10 11 14 16 6 5 4 4 4 5 4 4 3 2 0 1 2 3 3 4 3 5 7 8 9 9 10 10 10 10 11 12 13 13 14 13 14 14 13 14 15 17 18 17 16 16 17 16 18 20 18 17 19 16 18 18 17 18 17 16 15 16 17 17 16 15 15 15 16 16 17 17 18 26 32 33 32 32
Wind_Direction
135 196 191 201 223 229 221 211 229 253 6 325 266 257 267 272 274 266 269 274 288 302 264 266 275 286 288 285 283 280 273 267 262 265 287 288 282 276 269 270 312 347 348 16 314 280 289 298 303 307 302 295 284 264 250 236 227 218 216 207 212 200 195 194 193 196 192 195 199 202 207 212 204 204 204 207 210 208 207 198 194 190 190 190 185 186
219 221 218 224 235 249 256 251 252 266 273 265 269 270 271 256 273 261 278 288 302 266 273 261 274 278 282 280 273 266 266 263 274 293 277 272 273 270 279 10 46 25 1 334 303 314 317 337 340 336 328 323 306 284 245 241 237 230 225 221 218 196 198 202 200 196 197 203 201 198 206 207 202 199 199 208 206 208 204 199 196 195 192 191 189 187
209 225 226 228 239 86 75 212 223 243 255 250 250 265 274 265 267 273 258 279 336 272 283 288 291 288 281 270 267 267 268 272 270 256 262 264 260 275 44 19 18 9 358 310 328 337 345 343 351 355 354 347 331 317 304 278 256 237 224 225 216 205 201 207 205 200 203 202 201 201 206 203 209 213 220 222 218 208 205 201 197 198 196 196 194 189
243 226 230 232 228 214 230 186 210 249 240 248 249 241 257 277 284 298 181 114 161 272 297 309 296 287 258 258 264 267 260 262 257 250 243 240 268 340 360 6 7 19 341 332 358 351 342 347 356 5 8 1 345 341 327 307 273 255 237 231 219 216 209 208 206 209 210 205 200 196 190 179 202 210 203 209 208 206 207 207 201 202 201 197 197 192
241 48 54 244 207 215 235 217 222 245 257 227 231 256 272 264 255 248 293 335 310 282 268 307 276 274 269 172 143 167 299 246 255 248 246 268 325 331 22 64 61 25 343 359 9 3 360 2 7 12 11 3 4 359 353 339 314 271 257 238 226 225 216 213 208 203 200 187 192 196 208 191 212 236 217 212 226 219 213 215 210 211 201 200 198 193
257 241 118 120 174 209 220 233 223 231 257 259 211 226 244 262 280 281 290 335 302 284 66 348 329 300 161 141 159 319 247 260 253 252 247 86 38 62 53 63 99 178 26 25 15 10 22 24 23 24 17 15 11 6 353 341 328 320 300 271 242 231 224 216 215 204 202 210 208 204 205 214 220 225 218 220 220 214 209 213 216 206 204 201 201 200
268 65 177 215 164 175 206 232 236 195 252 266 266 209 248 258 269 279 290 331 287 291 66 19 317 297 181 246 252 261 256 262 258 270 327 353 32 41 55 50 50 44 41 27 9 24 37 32 30 25 21 15 12 3 348 349 347 341 326 310 285 258 248 221 209 191 195 209 212 212 211 213 216 221 225 225 223 216 211 206 208 205 196 200 203 204
188 164 108 146 182 199 220 243 228 188 234 256 66 346 222 251 249 274 288 240 271 322 261 194 212 283 299 201 205 232 236 253 269 308 343 360 55 92 93 53 62 54 41 13 9 30 41 39 33 24 18 19 13 358 0 4 0 355 349 338 320 293 266 241 205 201 203 209 211 214 216 217 223 223 230 213 207 204 202 198 201 198 200 200 205 206
194 150 173 158 189 193 223 231 88 185 203 319 25 47 66 303 293 208 242 279 289 330 304 161 167 272 265 114 293 200 242 251 263 306 50 56 48 50 64 65 62 54 47 36 38 39 40 40 33 23 18 14 13 15 12 5 0 358 356 352 344 324 302 272 210 216 213 217 220 216 218 225 230 233 230 232 198 208 197 201 206 206 204 200 203 208
279 259 206 191 172 224 204 57 170 165 226 123 127 92 93 105 78 183 269 290 289 305 275 152 183 270 283 255 161 65 270 271 64 39 69 85 82 43 46 57 57 55 40 35 36 40 43 40 35 26 19 18 15 13 12 12 10 9 5 5 0 355 334 317 249 223 224 222 225 226 224 227 232 229 232 228 218 206 203 204 206 203 202 200 200 207
49 127 4 210 220 251 92 53 327 225 52 112 165 142 150 160 186 146 85 288 294 253 265 162 188 214 287 310 154 169 187 356 27 134 88 105 86 67 60 54 50 48 39 32 34 32 36 35 33 22 23 17 17 18 18 16 14 10 12 5 10 8 349 337 298 253 239 230 229 236 234 231 231 229 232 230 226 218 205 208 206 204 206 203 205 203
201 146 224 231 19 83 113 94 56 49 109 217 238 287 299 235 148 207 187 164 248 266 303 150 183 199 235 212 251 39 16 235 290 311 311 35 70 66 60 58 52 49 42 34 32 31 29 28 25 18 15 15 17 21 21 17 13 13 14 11 13 16 6 351 332 292 263 250 242 242 244 241 239 236 237 237 236 221 213 210 212 206 206 209 208 206
229 214 190 90 252 196 173 224 129 109 159 207 198 251 264 282 334 253 152 227 205 253 78 43 105 243 237 244 326 313 311 301 142 307 343 23 79 72 60 60 55 52 46 37 33 31 28 24 18 17 14 13 18 20 18 17 15 13 13 15 17 15 7 4 345 324 294 271 261 253 250 252 250 245 244 246 241 233 220 213 213 205 206 205 205 206
268 95 142 201 303 213 184 201 154 226 185 182 202 193 201 266 238 261 280 288 279 279 92 130 181 245 271 287 246 256 279 17 49 43 21 27 59 73 64 52 50 46 42 37 33 29 25 19 15 15 16 19 20 20 17 13 15 14 15 16 18 16 13 6 0 344 324 301 285 276 268 262 255 252 247 247 247 240 234 222 218 214 212 210 208 207
295 279 189 153 225 152 192 210 216 294 160 194 197 179 202 212 233 276 239 261 269 295 62 245 158 231 322 92 23 68 47 64 56 55 60 65 68 70 60 52 46 40 36 33 34 31 25 19 15 14 14 19 21 19 16 14 14 13 15 15 17 17 15 14 8 360 347 328 310 295 281 272 266 260 256 252 249 246 237 227 223 223 220 219 214 211
227 255 65 187 354 155 187 222 57 98 96 143 61 1 293 233 184 243 250 262 284 289 240 174 225 360 243 27 263 110 83 78 65 60 60 60 60 60 51 42 39 37 33 28 27 26 26 23 20 19 16 13 13 14 16 14 11 14 14 14 18 18 15 14 12 10 360 346 331 314 296 285 278 271 268 264 257 251 242 237 230 231 227 224 220 212
189 249 87 271 88 209 202 23 212 157 246 131 148 203 217 19 214 273 282 247 294 260 252 249 256 252 277 271 262 106 92 79 66 56 52 47 47 50 47 39 36 35 33 28 25 22 19 19 21 20 18 14 11 9 8 9 12 12 12 13 16 18 18 17 15 11 8 0 350 336 318 302 288 279 272 270 268 262 254 244 238 237 238 231 223 220
279 282 145 157 232 171 47 325 0 1 92 111 211 225 61 144 38 223 271 240 234 251 256 215 259 274 283 294 105 103 92 71 63 59 55 51 43 46 42 42 36 30 29 29 29 28 24 21 18 16 15 14 12 10 7 7 5 10 14 12 11 13 17 16 13 11 12 5 1 352 342 326 308 294 284 277 272 268 263 251 244 240 237 231 224 217
17 291 266 110 214 101 114 230 261 146 322 269 269 345 246 233 242 190 242 238 248 250 264 238 246 253 250 260 244 184 93 87 71 59 59 47 43 42 37 34 32 28 25 24 22 21 21 19 17 15 11 11 11 10 10 6 8 10 11 10 10 11 18 17 14 13 13 11 4 355 348 340 328 314 300 288 280 276 266 260 254 245 238 238 225 217
123 266 282 83 86 112 151 189 245 169 160 143 248 258 76 345 249 244 221 271 261 267 266 252 227 251 228 257 268 54 66 82 85 63 60 59 51 49 45 38 32 30 26 19 16 16 16 16 11 6 6 1 360 1 0 3 8 13 13 12 11 12 14 15 16 12 11 6 5 358 356 354 345 331 316 304 296 284 276 268 264 255 245 240 235 223
274 157 271 243 145 48 246 181 238 253 245 188 218 233 191 229 29 297 335 239 235 261 255 270 262 253 276 30 76 78 76 74 86 86 75 69 68 62 56 50 40 38 33 18 9 2 1 5 360 353 347 337 330 353 0 5 7 6 7 10 11 15 15 14 9 7 7 2 3 3 3 356 355 346 336 322 306 296 288 282 275 270 261 251 234 224
241 206 247 267 264 254 271 65 244 132 291 271 238 238 229 232 237 238 251 188 230 238 258 255 260 251 71 7 86 96 87 90 85 102 96 94 92 92 68 56 70 42 247 282 308 311 312 332 324 291 284 301 341 1 10 6 8 11 12 12 13 13 13 5 3 2 357 358 358 3 1 359 355 351 339 334 319 303 293 283 280 275 268 259 252 230
352 356 291 261 251 265 287 342 129 113 130 190 246 264 262 291 295 260 261 257 270 250 6 238 288 202 1 62 98 106 101 94 93 96 103 91 77 68 59 34 314 252 302 277 279 262 249 264 276 289 341 9 14 12 9 10 14 14 13 11 9 9 3 360 354 352 351 351 354 357 358 357 357 356 355 349 342 332 321 310 298 289 275 268 261 242
83 236 252 255 261 280 279 265 91 334 237 248 280 4 332 273 278 276 277 314 289 287 280 272 253 179 197 248 146 135 137 138 132 131 127 124 113 99 79 14 339 343 312 297 255 252 259 276 302 348 6 7 10 9 10 11 11 12 15 12 5 2 356 354 349 346 349 351 351 355 355 359 356 357 358 354 348 340 332 324 315 305 292 274 262 261
272 253 271 293 285 255 248 212 122 71 90 266 164 141 163 228 200 236 239 234 259 217 245 258 253 239 155 177 158 145 146 132 120 121 122 119 121 96 48 24 13 3 356 355 354 347 348 351 1 1 358 5 5 5 5 7 8 7 7 8 6 358 350 345 346 347 347 348 349 350 354 352 354 354 352 351 346 344 340 332 325 314 301 291 276 262
255 253 307 284 284 282 271 260 274 287 334 321 241 215 191 233 280 298 273 270 267 155 303 271 296 272 228 216 227 159 155 120 110 95 98 88 79 62 42 20 18 356 360 349 346 351 353 347 349 355 358 358 1 357 355 355 356 355 352 355 353 349 335 338 337 337 340 344 345 348 352 351 349 349 347 346 344 342 339 338 334 327 317 307 296 280
213 223 213 242 261 267 276 295 276 253 276 275 298 311 289 286 275 253 272 261 251 280 269 257 272 288 290 289 286 254 6 39 61 55 50 42 38 52 340 348 343 339 327 340 333 336 341 352 353 352 349 350 347 345 344 346 347 348 346 345 346 341 334 327 329 324 333 337 343 341 345 348 347 337 338 338 337 334 338 338 337 333 326 317 304 294
220 246 230 247 254 267 273 276 283 281 275 278 279 278 281 276 268 260 253 260 291 291 272 244 268 274 276 288 291 300 75 48 41 37 20 3 331 325 309 309 301 304 315 322 332 331 338 335 339 342 341 342 344 342 341 335 328 330 335 334 338 340 339 330 324 323 323 333 340 345 341 340 334 332 327 328 322 323 329 331 333 332 328 326 316 305
253 271 273 276 271 270 272 277 285 275 259 270 267 272 275 279 277 264 260 263 261 258 272 285 281 276 273 272 286 54 41 35 18 6 351 332 290 267 279 279 285 283 286 288 297 311 309 311 309 314 317 322 327 332 334 337 336 332 326 319 315 323 326 329 327 328 330 328 334 339 338 331 330 328 334 329 327 330 332 339 330 329 327 324 322 313
245 262 259 261 269 266 270 273 271 275 279 278 268 265 267 270 270 272 275 268 263 265 267 273 271 270 273 293 77 68 52 24 353 335 317 314 309 288 276 277 278 285 285 289 288 285 285 285 293 293 295 297 303 309 316 320 325 327 326 323 323 321 323 325 322 319 323 325 325 327 327 328 328 330 327 331 333 334 331 328 332 328 322 325 324 321
234 261 229 142 276 260 267 273 278 280 285 277 277 273 266 263 265 268 270 269 272 267 263 261 263 265 281 81 92 83 22 335 313 320 329 322 315 305 292 287 285 286 297 301 302 296 289 282 277 278 279 284 290 293 297 298 302 312 315 320 323 322 324 321 312 309 306 310 311 315 321 323 326 326 328 329 325 324 328 331 329 327 322 322 318 312
292 268 290 294 285 275 264 269 276 284 287 277 276 270 264 262 266 256 255 254 257 263 267 273 266 265 107 115 100 198 248 326 317 315 314 313 308 298 291 285 284 283 287 292 293 293 292 291 288 283 279 281 284 288 293 299 300 299 305 310 313 317 319 320 317 315 312 309 311 307 311 315 318 320 318 322 322 322 321 319 317 320 323 324 325 320
228 264 271 272 274 260 265 287 322 335 296 277 252 251 260 260 252 256 256 259 258 269 273 260 278 46 135 144 62 336 223 302 296 300 301 290 283 272 278 279 275 275 272 280 285 286 282 280 278 278 279 275 272 274 279 286 291 293 298 303 301 307 309 313 317 316 317 318 317 314 307 307 307 307 307 308 309 310 311 314 314 313 316 316 315 316
218 230 248 242 255 261 276 323 239 277 260 251 352 50 272 277 304 291 271 267 278 271 288 352 122 166 148 167 207 340 308 290 306 290 269 276 286 287 273 272 270 270 269 269 270 269 268 266 262 262 263 264 264 262 265 263 267 275 282 287 291 294 297 302 304 307 308 311 312 314 313 308 307 299 300 298 295 301 299 302 302 306 310 306 301 298
232 233 247 239 254 270 83 45 275 236 243 308 44 261 120 238 261 259 265 266 256 131 150 153 148 164 186 161 231 262 252 255 261 270 272 265 259 267 280 280 274 267 266 266 267 270 267 267 267 266 265 265 264 265 265 263 260 265 275 278 285 290 294 296 295 297 298 299 302 304 304 301 300 303 304 304 300 294 291 292 295 291 296 303 303 302
229 234 222 217 202 354 204 232 248 243 340 329 279 238 207 229 252 259 276 250 199 206 201 192 178 153 179 229 279 278 283 283 272 261 261 269 269 273 290 297 294 284 270 267 271 276 279 279 280 282 279 277 274 264 259 259 261 266 273 280 278 284 285 285 285 286 289 288 287 290 295 296 291 292 296 295 293 289 290 291 289 292 296 293 293 288
233 246 204 252 192 238 235 231 243 320 317 295 286 265 156 253 207 259 287 306 164 212 184 187 172 178 299 311 322 318 320 297 283 274 249 259 281 289 290 295 299 295 291 282 279 281 285 289 288 289 291 292 285 280 277 286 295 288 282 279 278 281 284 284 282 284 284 282 282 281 282 284 286 285 290 291 287 282 282 284 286 288 292 289 287 290
219 220 222 221 265 220 235 263 274 265 255 298 93 288 358 332 45 339 109 280 167 193 169 146 133 315 318 305 306 312 329 298 293 293 300 288 267 280 282 287 290 290 288 289 291 299 308 318 323 323 320 312 305 302 308 317 315 308 298 292 292 290 284 281 279 284 285 283 283 280 278 277 277 280 280 285 285 285 286 285 284 283 285 285 287 287
221 222 227 225 245 252 228 230 238 248 252 98 264 248 190 84 24 265 256 275 106 177 223 167 326 296 271 286 293 293 286 285 284 294 303 311 301 278 287 292 295 294 293 292 302 315 326 327 323 317 316 315 310 315 319 318 309 298 293 294 294 292 287 283 284 280 277 280 283 282 279 274 268 271 278 283 284 284 286 285 282 280 278 275 277 275
165 199 195 232 229 229 243 248 249 244 248 226 190 282 160 133 145 227 284 289 84 243 215 205 247 278 281 268 271 267 274 293 293 302 310 310 320 310 295 298 302 304 306 312 318 330 329 321 321 322 319 315 310 315 315 315 309 297 293 292 294 290 288 292 292 289 291 292 286 280 273 271 277 276 277 278 280 283 282 282 282 279 276 276 276 279
149 237 204 216 228 236 238 249 260 264 250 253 271 291 112 173 123 257 243 315 161 202 206 208 239 259 270 277 276 276 258 272 284 290 308 317 312 307 308 309 309 316 318 321 321 331 324 320 316 310 309 305 308 314 318 319 311 304 302 301 298 293 297 300 300 300 300 295 290 284 278 276 272 275 275 275 276 278 278 279 279 280 278 278 279 275
233 157 285 238 225 235 236 250 250 273 275 262 261 124 159 161 230 246 287 117 240 272 235 210 242 253 259 260 265 267 281 283 290 306 305 304 302 305 310 320 321 314 311 313 316 324 325 317 312 310 308 310 316 321 324 326 318 311 311 308 301 304 310 307 308 307 303 299 293 289 285 281 278 276 277 277 277 276 275 273 275 276 277 277 276 277
200 153 222 207 192 252 239 250 263 268 4 154 159 87 221 200 262 48 299 263 200 242 266 248 231 247 245 271 266 274 280 281 287 294 300 304 306 307 313 316 315 312 314 319 323 331 335 321 315 313 312 317 323 326 328 331 320 315 314 307 309 315 313 312 312 309 305 301 297 294 290 287 285 283 280 278 277 276 276 276 274 273 272 272 272 271
203 224 233 233 171 229 212 209 215 234 238 182 174 224 195 210 275 349 330 305 298 295 295 299 277 272 270 263 278 281 284 290 291 297 308 304 304 306 310 310 308 308 309 312 319 329 343 325 321 316 312 313 317 324 327 331 320 315 312 308 317 317 317 318 319 316 310 304 300 299 295 292 290 286 281 280 279 278 276 274 274 273 269 269 270 271
190 207 215 252 175 182 230 250 201 178 232 175 212 253 260 262 273 278 264 270 288 290 288 273 283 340 176 268 271 278 285 288 296 304 298 295 300 303 307 308 309 311 313 317 324 336 341 328 319 315 311 310 317 325 326 325 318 311 307 311 320 318 319 316 310 305 300 298 297 295 294 293 290 288 286 283 281 278 275 272 271 270 265 262 263 263
243 233 16 345 245 258 274 265 307 259 249 251 224 224 250 269 269 271 265 277 260 266 303 278 303 237 157 127 279 279 269 286 295 292 289 289 293 298 301 301 304 311 315 321 323 332 333 326 319 315 311 309 314 321 318 318 320 310 306 312 314 313 313 316 316 311 306 304 301 298 299 299 295 290 287 286 282 278 274 273 271 269 269 267 263 263
247 215 165 233 243 267 259 240 221 248 256 250 261 264 251 230 259 275 258 254 232 146 152 129 188 184 170 189 267 278 281 281 281 285 288 290 292 298 302 303 306 313 321 320 321 334 331 334 321 313 312 306 312 318 314 314 309 304 306 310 312 311 309 305 301 298 296 295 297 297 297 294 290 291 290 288 286 281 279 276 275 271 269 265 263 262
271 159 197 223 235 231 253 260 257 249 252 260 266 271 270 269 222 96 110 100 120 119 122 141 139 210 201 256 266 276 280 286 284 288 294 294 299 302 302 305 311 313 314 319 321 335 328 318 309 304 306 304 309 311 308 308 306 305 306 303 303 299 297 298 296 295 294 295 296 293 292 289 286 286 284 281 279 278 277 273 270 269 265 263 261 263
208 94 214 179 216 237 252 260 261 267 270 262 250 237 247 259 162 142 138 132 135 149 150 160 195 250 276 280 297 290 293 291 293 294 295 299 301 301 304 309 310 310 316 322 320 321 313 309 306 303 302 299 302 303 304 303 302 302 298 299 301 299 300 299 298 296 295 295 294 291 293 291 290 289 287 285 283 275 272 272 273 270 269 264 263 264
196 237 171 145 248 243 241 245 237 247 269 266 238 220 187 105 156 152 146 153 165 162 168 201 223 236 263 284 293 298 290 293 297 297 294 295 298 302 306 309 313 314 311 311 309 307 305 302 301 301 299 297 301 302 301 300 298 297 300 301 300 301 295 297 297 295 295 297 295 294 293 292 291 291 290 288 286 285 280 272 271 273 272 275 270 267
220 225 199 215 231 249 245 242 227 241 262 267 277 117 122 138 153 174 187 188 164 146 98 288 290 276 260 263 287 296 291 293 299 304 295 295 299 305 307 314 315 312 309 310 310 306 303 303 301 297 295 299 301 298 296 295 295 298 297 298 299 296 293 292 295 296 296 296 292 293 293 292 289 287 285 283 283 281 281 282 272 265 266 267 270 270